Regional Weather Roundup
Issued by NWS

Home | Current Version | Previous Version | Text Only | Print | Product List | Glossary On
Versions: 1 2 3 4 5 6 7 8 9 10 11 12 13 14 15 16 17 18 19 20 21 22 23 24 25 26 27 28 29 30 31 32 33 34 35 36 37 38 39 40 41 42 43 44 45 46 47 48 49 50
000
ASUS43 KOAX 242110
RWRNE

WEATHER ROUNDUP FOR NEBRASKA
NATIONAL WEATHER SERVICE OMAHA NE
300 PM CST MON NOV 24 2014

NOTES: SATELLITE DATA IS BEING USED TO AUGMENT CLOUD COVER ABOVE
       12000 FEET.
       "FAIR" INDICATES FEW OR NO CLOUDS BELOW 12,000 FEET WITH NO
       SIGNIFICANT WEATHER AND/OR OBSTRUCTIONS TO VISIBILITY.

  * THESE STATIONS DO NOT REPORT WEATHER SUCH AS RAIN...SNOW OR FOG.

NEZ001>004-019>022-054>056-242200-
NEBRASKA PANHANDLE

CITY           SKY/WX    TMP DP  RH WIND       PRES   REMARKS
SCOTTSBLUFF    CLOUDY    38  25  59 NW25G32   29.99R WCI  27
ALLIANCE       PTSUNNY   36  26  67 NW25G36   29.94R WCI  24
CHADRON        CLOUDY    38  26  62 NW26G37   29.95R WCI  26
SIDNEY         LGT SNOW  34  28  79 N23G35    29.98R WCI  22
$$

NEZ057>060-069>072-079>082-242200-
SOUTHWEST NEBRASKA

CITY           SKY/WX    TMP DP  RH WIND       PRES   REMARKS
NORTH PLATTE   MOSUNNY   43  20  39 NW24G31   29.91R
IMPERIAL       CLOUDY    43  21  41 NW24G32   29.94R
LEXINGTON      MOSUNNY   45  19  35 NW25G37   29.90R
MCCOOK         CLOUDY    47  18  31 NW18G25   29.92R
$$

NEZ005>010-023>029-035>040-094-242200-
NORTH CENTRAL NEBRASKA

CITY           SKY/WX    TMP DP  RH WIND       PRES   REMARKS
VALENTINE      SUNNY     35  18  49 NW15      29.91R WCI  25
AINSWORTH      SUNNY     33  10  37 NW16      29.90R WCI  23
BROKEN BOW     SUNNY     40  17  39 N21G33    29.89R WCI  30
ORD            SUNNY     38   5  25 NW24G32   29.88R WCI  27
$$

NEZ041-046>049-061>064-073>077-083>087-242200-
SOUTH CENTRAL NEBRASKA

CITY           SKY/WX    TMP DP  RH WIND       PRES   REMARKS
GRAND ISLAND   SUNNY     39   9  29 NW26G35   29.88R WCI  28
AURORA         SUNNY     39   8  27 NW21G31   29.88R WCI  29
HASTINGS       SUNNY     40  14  34 NW25G33   29.88R WCI  29
KEARNEY *      SUNNY     41  16  36 W21G30    29.91R
YORK           SUNNY     37   9  30 NW23G31   29.86R WCI  26
$$

NEZ011>018-030>034-042>045-242200-
NORTHEAST NEBRASKA

CITY           SKY/WX    TMP DP  RH WIND       PRES   REMARKS
NORFOLK        SUNNY     34  13  41 NW25G35   29.83R WCI  21
ALBION         SUNNY     35   2  25 NW22G32   29.86R WCI  23
BLAIR          MOSUNNY   36  17  46 NW24G35   29.78R WCI  24
COLUMBUS *     SUNNY     36  10  35 NW24G35   29.86R WCI  24
TEKAMAH        SUNNY     37  17  44 NW28G38   29.80R WCI  25
$$

NEZ050>053-065>068-078-088>093-242200-
SOUTHEAST NEBRASKA

CITY           SKY/WX    TMP DP  RH WIND       PRES   REMARKS
LINCOLN        SUNNY     39  13  34 NW23G32   29.86R WCI  28
OMAHA EPPLEY   MOSUNNY   37  18  46 NW22      29.80R WCI  26
BEATRICE       SUNNY     39  15  37 NW21G26   29.86R WCI  29
FALLS CITY     MOSUNNY   38  21  50 NW18G26   29.84R WCI  28
NEBRASKA CITY  SUNNY     37  15  40 NW21G35   29.82R WCI  26
$$

NEZ044-045-051>053-067-242200-
OMAHA AREA

CITY           SKY/WX    TMP DP  RH WIND       PRES   REMARKS
OMAHA EPPLEY   MOSUNNY   37  18  46 NW22      29.80R WCI  26
BLAIR          MOSUNNY   36  17  46 NW24G35   29.78R WCI  24
OFFUTT AFB     MOSUNNY   37  17  45 NW22      29.80R WCI  26
WAHOO          FAIR      37  15  40 NW24G30   29.83R WCI  26
$$


USA.gov is the U.S. government's official web portal to all federal, state and local government web resources and services.